Regional Weather Roundup
Issued by NWS Northern Indiana

Home | Current Version | Previous Version | Graphics & Text | Print | Product List | Glossary On
Versions: 1 2 3 4 5 6 7 8 9 10 11 12 13 14 15 16 17 18 19 20 21 22 23 24 25 26 27 28 29 30 31 32 33 34 35 36 37 38 39 40 41 42 43 44 45 46 47 48 49 50
000
ASUS43 KIWX 272300
RWRIWX

KIWX WEATHER ROUNDUP
NATIONAL WEATHER SERVICE NORTHERN INDIANA
700 PM EDT FRI MAY 27 2016

NOTE: "FAIR" INDICATES FEW OR NO CLOUDS BELOW 12,000 FEET WITH NO
SIGNIFICANT WEATHER AND/OR OBSTRUCTIONS TO VISIBILITY.

* THESE STATIONS ARE NOT UNDER NWS QUALITY CONTROL. THEY ALSO MAY NOT
  REPORT WEATHER SUCH AS PRECIPITATION OR FOG.

INZ001>027-280000-
NORTHERN INDIANA

CITY           SKY/WX    TMP DP  RH WIND       PRES   REMARKS
GARY*          PTSUNNY   75  73  94 S6        29.85F
SOUTH BEND     CLOUDY    81  60  48 SW16G24   29.89R
ELKHART*       CLOUDY    82  64  54 S15       29.89S
GOSHEN         MOSUNNY   83  56  39 S17       29.89F
ANGOLA*          N/A     84  79  84 S9        29.91F HX  96
FORT WAYNE     PTSUNNY   86  58  38 S15G25    29.91F

$$
INZ028>050-280000-
CENTRAL INDIANA

CITY           SKY/WX    TMP DP  RH WIND       PRES   REMARKS
LAFAYETTE      SUNNY     81  56  42 S15       29.87F
KOKOMO*        MOSUNNY   84  59  42 S17G23    29.89F
MUNCIE*        MOSUNNY   86  57  37 S16       29.92F
INDIANAPOLIS   MOSUNNY   83  59  44 S17       29.90F

$$
MIZ043>046-050>051-056>058-064>065-071>073-077>080-280000-
SOUTHWEST LOWER MICHIGAN

CITY           SKY/WX    TMP DP  RH WIND       PRES   REMARKS
BATTLE CREEK   CLOUDY    81  63  54 SE9       29.91F
BENTON HARBOR  LGT RAIN  73  64  73 SW13G22   29.89R
COLDWATER*     CLOUDY    81  62  52 S6        29.91F
HILLSDALE*     CLOUDY    82  55  40 CALM      29.94F
HOLLAND        LGT RAIN  80  64  58 SE9       29.88F
GRAND RAPIDS   CLOUDY    81  64  56 SE9       29.90F
KALAMAZOO      CLOUDY    82  60  47 S6        29.89F
STURGIS*       CLOUDY    83  59  45 S12G21    29.89S
THREE RIVERS*  FAIR      84  58  41 S13       29.90S

$$
OHZ001>008-015>018-024>025-280000-
NORTHWEST OHIO

CITY           SKY/WX    TMP DP  RH WIND       PRES   REMARKS
DEFIANCE       CLOUDY    86  60  41 S3        29.92F
FINDLAY        MOSUNNY   87  58  37 S15       29.93F
TOLEDO EXPRESS MOSUNNY   85  60  42 S5        29.92F
TOLEDO METCALF MOSUNNY   88  59  37 SW8       29.93F
LIMA           SUNNY     85  59  41 S14       29.94F

$$
AND FOR LAKE MICHIGAN COASTAL AND OPEN LAKE BUOY OBSERVATIONS

STATION/POSITION TEMP    WIND        PRES    VSBY  WAVE
                 AIR SEA DIR/SP/G                  HT/PER
                 (F)     (DEG/KT/KT) (MB)    (MI)  (FT/S)
CALUMET HARBOR    76                 1009.9F
MICHIGAN CITY     70     190/ 12/ 13   N/A
BURNS HARBOR      72     180/  8/ 14 1011.9S
SAINT JOSEPH      82     180/  3/  8 1012.2S
SOUTH LAKE BUOY   57 51  100/ 10/ 12 1010.3          0
4 MI NW BRIDGMAN  73 63  180/ 12/ 23   N/A           1/ 2
MICHIGAN CITY     66 59  210/ 12/ 17   N/A           1/ 2

$$
&&




USA.gov is the U.S. government's official web portal to all federal, state and local government web resources and services.